FW2359 Weather Reports


Display with metric or nautical units.
time (UTC)temp
F
wind
direction
speed
MPH
gust
MPH
rain 1hr
in
rain 24hr
in
rain mn
in
humidity
%
barometer
mb
20260510063104 57 149 6.0 8.0 0.00 0.00 0.00 53 1016.8
20260510061529 58 143 3.0 6.0 0.00 0.00 0.00 51 1016.8
20260510060033 58 132 5.0 7.0 0.00 0.00 0.00 50 1016.7
20260510054529 60 132 4.0 6.0 0.00 0.00 0.00 48 1016.6
20260510050031 63 79 2.0 4.0 0.00 0.00 0.00 42 1016.3
20260510044530 65 73 2.0 7.0 0.00 0.00 0.00 40 1016.3
20260510043032 65 91 2.0 5.0 0.00 0.00 0.00 38 1016.2
20260510041541 65 112 2.0 4.0 0.00 0.00 0.00 37 1015.9
20260510041532 66 69 3.0 6.0 0.00 0.00 0.00 37 1015.7
20260510033106 67 151 3.0 5.0 0.00 0.00 0.00 44 1015.6
20260510031530 67 154 4.0 6.0 0.00 0.00 0.00 45 1015.5
20260510030031 68 159 4.0 6.0 0.00 0.00 0.00 44 1015.5
20260510024531 69 154 4.0 6.0 0.00 0.00 0.00 43 1015.4
20260510023029 72 101 4.0 5.0 0.00 0.00 0.00 39 1015.3
20260510021531 73 67 2.0 4.0 0.00 0.00 0.00 37 1015.4
20260510014603 77 49 3.0 5.0 0.00 0.00 0.00 29 1015.6
20260510011530 80 25 4.0 6.0 0.00 0.00 0.00 27 1015.7
20260510010030 81 14 4.0 6.0 0.00 0.00 0.00 27 1015.8
20260510004530 80 22 4.0 7.0 0.00 0.00 0.00 26 1015.8
20260510003106 80 16 4.0 8.0 0.00 0.00 0.00 26 1015.9
20260510001530 80 37 4.0 6.0 0.00 0.00 0.00 25 1015.9
20260510000031 82 20 5.0 8.0 0.00 0.00 0.00 24 1016.3
20260509234529 82 28 4.0 7.0 0.00 0.00 0.00 23 1016.5
20260509233031 82 16 5.0 11.0 0.00 0.00 0.00 24 1016.6
20260509231605 82 359 5.0 9.0 0.00 0.00 0.00 24 1016.9
20260509230029 82 359 5.0 12.0 0.00 0.00 0.00 24 1017.3
20260509224537 82 360 5.0 10.0 0.00 0.00 0.00 25 1017.4
20260509221531 81 32 4.0 7.0 0.00 0.00 0.00 26 1017.9
20260509220032 80 39 5.0 9.0 0.00 0.00 0.00 28 1018.1
20260509214606 79 3 6.0 12.0 0.00 0.00 0.00 32 1018.4
20260509213035 78 13 6.0 11.0 0.00 0.00 0.00 34 1018.6
20260509211530 77 359 6.0 9.0 0.00 0.00 0.00 36 1018.9
20260509210031 76 359 6.0 12.0 0.00 0.00 0.00 37 1019.1
20260509201602 75 15 6.0 11.0 0.00 0.00 0.00 40 1019.7
20260509200031 74 3 6.0 10.0 0.00 0.00 0.00 42 1020.1
20260509194531 73 12 6.0 11.0 0.00 0.00 0.00 43 1020.3
20260509193030 72 2 6.0 9.0 0.00 0.00 0.00 44 1020.5
20260509190030 69 349 5.0 8.0 0.00 0.00 0.00 49 1020.9
20260509184603 68 328 4.0 10.0 0.00 0.00 0.00 50 1021.1
20260509183032 67 326 4.0 8.0 0.00 0.00 0.00 53 1021.2
20260509181532 66 297 3.0 8.0 0.00 0.00 0.00 53 1021.3
20260509174529 64 287 2.0 5.0 0.00 0.00 0.00 58 1021.4
20260509173109 63 323 1.0 4.0 0.00 0.00 0.00 61 1021.6
20260509171529 61 258 1.0 5.0 0.00 0.00 0.00 65 1021.8
20260509164531 57 275 1.0 3.0 0.00 0.00 0.00 71 1022.1
20260509163032 56 266 1.0 4.0 0.00 0.00 0.00 72 1022.2
20260509161529 55 267 1.0 5.0 0.00 0.00 0.00 74 1022.5
20260509160106 54 236 2.0 5.0 0.00 0.00 0.00 77 1022.6
20260509154607 53 213 1.0 4.0 0.00 0.00 0.00 80 1022.6
20260509153030 52 241 2.0 5.0 0.00 0.00 0.00 81 1022.5
20260509151534 52 255 0.0 4.0 0.00 0.00 0.00 82 1022.5
20260509150039 51 300 3.0 6.0 0.00 0.00 0.00 84 1022.6
20260509144533 50 293 2.0 4.0 0.00 0.00 0.00 85 1022.6
20260509143029 50 217 1.0 6.0 0.00 0.00 0.00 86 1022.5
20260509141538 48 137 0.0 3.0 0.00 0.00 0.00 87 1022.4
20260509140032 47 138 3.0 6.0 0.00 0.00 0.00 87 1022.4
20260509134533 47 148 4.0 7.0 0.00 0.00 0.00 86 1022.5
20260509133036 47 136 4.0 6.0 0.00 0.00 0.00 85 1022.4
20260509131530 48 170 4.0 8.0 0.00 0.00 0.00 85 1022.2
20260509130030 47 187 1.0 7.0 0.00 0.00 0.00 85 1022.1
20260509124538 47 130 2.0 4.0 0.00 0.00 0.00 84 1021.9
20260509123027 47 79 1.0 6.0 0.00 0.00 0.00 81 1021.9
20260509121532 50 162 3.0 5.0 0.00 0.00 0.00 78 1021.8
20260509120030 52 237 3.0 7.0 0.00 0.00 0.00 77 1021.6
20260509110031 54 229 5.0 12.0 0.00 0.00 0.00 74 1021.4
20260509104530 51 214 5.0 13.0 0.00 0.00 0.00 79 1021.4
20260509103033 50 58 2.0 9.0 0.00 0.00 0.00 80 1021.4
20260509101530 50 59 1.0 4.0 0.00 0.00 0.00 78 1021.5
20260509100027 51 133 1.0 3.0 0.00 0.00 0.00 75 1021.7
20260509091537 54 232 6.0 10.0 0.00 0.00 0.00 72 1022.0
20260509090031 53 257 5.0 8.0 0.00 0.00 0.00 74 1022.2
20260509081531 54 261 1.0 4.0 0.00 0.00 0.00 71 1022.3
20260509080030 55 260 5.0 8.0 0.00 0.00 0.00 70 1022.3
20260509074607 56 257 3.0 7.0 0.00 0.00 0.00 66 1022.4
20260509073032 57 266 3.0 6.0 0.00 0.00 0.00 64 1022.2
20260509071605 57 211 6.0 15.0 0.00 0.00 0.00 64 1022.1
20260509070033 58 244 3.0 14.0 0.00 0.00 0.00 62 1021.8
20260509064531 58 235 8.0 18.0 0.00 0.00 0.00 61 1021.7